FALCON 9 DEB (45793 NORAD) Tracking and Keplerian Element Data

This shows tracking and keplerian element data for the satellite.

Feedback or suggestion? Click here.




ElementValue
Catalog45793
NameFALCON 9 DEB
Epoch Orbit337
Epoch Day185.43731142
Epoch Year2020
RAAN195.6055
Inclination52.9941
Eccentricity0.0084081
Argument of Perigee118.8326
Mean Anonmoly242.1179
Mean Motion16.0622182
Decay Rate0.00381133
L11 45793U 20038BR 20185.43731142 .00381133 11501-4 30493-3 0 9995
L22 45793 52.9941 195.6055 0084081 118.8326 242.1179 16.06221820 3378

Live tracking and technical data element details for FALCON 9 DEB (NORAD 45793). FALCON 9 DEB can be tracked NOW for your location showing map with azimuth and elevation plus other details from your city location.

Track the satellite on the map from your city or location and see movement details for azimuth, elevation, latitude, longitude, range, height, and movement on the map or in text.







IsCatalogInMostPopularTable: catalog: 45793, numindb: 5
Update: records affected: 1



GetName: 45793 FALCON 9 DEB

Hit Count: updated at: Sat, 04 Jul 2020 02:18:47 GMT